Project,Study,Ord_Occ,Event_Num,Cast_ID,Date_Time_UTC,Date_Time_PST,Lat_Dec,Lon_Dec,Sta_ID,Line,Sta,Depth,Pressure,PrQ,Temp1,Temp1Q,Temp2,Temp2Q,TempAve,Salt1,Salt1Q,Salt1_Corr,Salt2,Salt2Q,Salt2_Corr,SaltAve_Corr,Ox1,Ox1Q,Ox1_CruiseCorr,Ox1_StaCorr,Ox2,Ox2Q,Ox2_CruiseCorr,Ox2_StaCorr,OxAve_StaCorr,Ox1uM,Ox1uM_CruiseCorr,Ox1uM_StaCorr,Ox2uM,Ox2uM_CruiseCorr,Ox2uM_StaCorr,OxAveuM_StaCorr,FluorV,FluorQ,EstChl_CruiseCorr,EstChl_StaCorr,ISUSV,ISUSQ,EstNO3_CruiseCorr,EstNO3_StaCorr,SigThetaTS1,SigThetaTS1Q,SigThetaTS2,SigThetaTS2Q,BAT,XMiss,TransQ,pH,pHQ,SPAR,SPARQ,PAR,PARQ,PoT1,PoT2,DynHt,SVA,OxSat1,OxSat2,BTL_Depth,BTL_Temp,SaltB,OxB,OxBuM,Chl-a,Phaeo,NO3,NO2,NH4,PO4,SIL
CalCOFI,2007SR,062,64,2007_062d,25-Jul-2020 11:35:24,25-Jul-2020 03:35:24,33.72046,-123.63232,076.7 090.0,076.7,090.0,2.000,2.014,,17.5413,,17.5413,,17.5413,33.0195,,33.0197,33.0217,,33.0233,33.0215,5.3885,,5.6127,5.6125,4.2556,,6.2182,4.5342,5.0734,235.041,244.8712,245.4348,185.624,409.3319,193.4477,219.4413,0.0369,,0.0094,0.0725,-99.0,,-99.0,-99.0,23.8665,,23.8683,,0.7512,82.8865,,8.128,,1.9043E+00,,3.2765E-01,,17.5410,17.5410,0.0157,,98.276,77.615,2,17.564,33.0381,5.587,244.03,0.097,0.023,0.15,0.00,0.10,0.33,1.38
CalCOFI,2007SR,062,64,2007_062d,25-Jul-2020 11:35:37,25-Jul-2020 03:35:37,33.72045,-123.63232,076.7 090.0,076.7,090.0,3.000,3.022,,17.5381,,17.5385,,17.5383,33.0218,,33.0220,33.0227,,33.0243,33.0232,5.3852,,5.6093,5.6090,4.2533,,6.2127,4.5288,5.0689,234.896,244.7198,245.2844,185.523,408.9773,193.1984,219.2414,0.0363,,0.0023,0.0690,-99.0,,-99.0,-99.0,23.8691,,23.8697,,0.7139,83.6552,,8.128,,1.9043E+00,,2.5204E-01,,17.5376,17.5380,0.0261,,98.211,77.569,,,,,,,,,,,,
CalCOFI,2007SR,062,64,2007_062d,25-Jul-2020 11:35:39,25-Jul-2020 03:35:39,33.72046,-123.63232,076.7 090.0,076.7,090.0,4.000,4.029,,17.5410,,17.5411,,17.5411,33.0218,,33.0220,33.0226,,33.0242,33.0231,5.3839,,5.6079,5.6077,4.2535,,6.2132,4.5292,5.0685,234.840,244.6614,245.2263,185.534,408.8403,193.2256,219.2260,0.0367,,0.0070,0.0714,-99.0,,-99.0,-99.0,23.8685,,23.8691,,0.6877,84.2037,,8.128,,1.9043E+00,,2.3261E-01,,17.5403,17.5404,0.0303,,98.193,77.577,,,,,,,,,,,,
CalCOFI,2007SR,062,64,2007_062d,25-Jul-2020 11:35:41,25-Jul-2020 03:35:41,33.72045,-123.63232,076.7 090.0,076.7,090.0,5.000,5.036,,17.5430,,17.5424,,17.5427,33.0216,,33.0218,33.0225,,33.0241,33.0230,5.3819,,5.6058,5.6056,4.2538,,6.2139,4.5300,5.0678,234.751,244.5685,245.1340,185.546,408.6226,193.2552,219.1946,0.0369,,0.0094,0.0725,-99.0,,-99.0,-99.0,23.8679,,23.8687,,0.6858,84.2435,,8.128,,1.9043E+00,,1.9136E-01,,17.5421,17.5416,0.0343,,98.159,77.584,,,,,,,,,,,,
CalCOFI,2007SR,062,64,2007_062d,25-Jul-2020 11:35:44,25-Jul-2020 03:35:44,33.72045,-123.63232,076.7 090.0,076.7,090.0,6.000,6.043,,17.5431,,17.5429,,17.5430,33.0216,,33.0218,33.0224,,33.0240,33.0229,5.3796,,5.6034,5.6032,4.2543,,6.2151,4.5311,5.0672,234.651,244.4641,245.0303,185.569,408.3780,193.3119,219.1711,0.0363,,0.0023,0.0690,-99.0,,-99.0,-99.0,23.8679,,23.8686,,0.6843,84.2756,,8.128,,1.9043E+00,,1.6257E-01,,17.5421,17.5419,0.0384,,98.117,77.594,,,,,,,,,,,,
CalCOFI,2007SR,062,64,2007_062d,25-Jul-2020 11:35:46,25-Jul-2020 03:35:46,33.72045,-123.63232,076.7 090.0,076.7,090.0,7.000,7.050,,17.5444,,17.5441,,17.5443,33.0213,,33.0215,33.0221,,33.0237,33.0226,5.3762,,5.5999,5.5996,4.2549,,6.2165,4.5326,5.0661,234.505,244.3117,244.8790,185.593,408.0209,193.3712,219.1251,0.0355,,,0.0643,7.8798E-09,,0.0000,-99.0,23.8674,,23.8681,,0.6834,84.2950,,8.128,,1.9043E+00,,1.4927E-01,,17.5432,17.5430,0.0424,,98.058,77.606,,,,,,,,,,,,
CalCOFI,2007SR,062,64,2007_062d,25-Jul-2020 11:35:47,25-Jul-2020 03:35:47,33.72044,-123.63232,076.7 090.0,076.7,090.0,8.000,8.057,,17.5449,,17.5449,,17.5449,33.0212,,33.0214,33.0219,,33.0235,33.0225,5.3741,,5.5977,5.5974,4.2538,,6.2139,4.5300,5.0637,234.412,244.2146,244.7825,185.546,407.7935,193.2552,219.0189,0.0359,,,0.0667,2.8655E-07,,0.0000,-99.0,23.8673,,23.8678,,0.6842,84.2782,,8.128,,1.9043E+00,,1.4482E-01,,17.5436,17.5435,0.0465,,98.021,77.587,,,,,,,,,,,,
CalCOFI,2007SR,062,64,2007_062d,25-Jul-2020 11:35:50,25-Jul-2020 03:35:50,33.72044,-123.63232,076.7 090.0,076.7,090.0,9.000,9.065,,17.5454,,17.5455,,17.5455,33.0212,,33.0214,33.0219,,33.0235,33.0225,5.3743,,5.5979,5.5976,4.2560,,6.2191,4.5352,5.0664,234.422,244.2250,244.7929,185.643,407.8179,193.4946,219.1438,0.0356,,,0.0649,-99.0,,-99.0,-99.0,23.8672,,23.8677,,0.6838,84.2862,,8.128,,1.9043E+00,,1.3711E-01,,17.5439,17.5440,0.0506,,98.026,77.629,,,,,,,,,,,,
CalCOFI,2007SR,062,64,2007_062d,25-Jul-2020 11:35:52,25-Jul-2020 03:35:52,33.72044,-123.63232,076.7 090.0,076.7,090.0,10.000,10.072,,17.5466,,17.5464,,17.5465,33.0211,,33.0213,33.0220,,33.0236,33.0225,5.3791,,5.6029,5.6026,4.2554,,6.2177,4.5337,5.0682,234.630,244.4422,245.0086,185.614,408.3267,193.4230,219.2158,0.0373,,0.0141,0.0749,-99.0,,-99.0,-99.0,23.8668,,23.8676,,0.6835,84.2935,,8.128,,1.9043E+00,,1.2808E-01,,17.5449,17.5448,0.0546,,98.115,77.618,10,17.564,33.0182,5.553,242.53,0.097,0.028,0.0,0.00,0.00,0.33,1.34
CalCOFI,2007SR,062,64,2007_062d,25-Jul-2020 11:35:54,25-Jul-2020 03:35:54,33.72044,-123.63232,076.7 090.0,076.7,090.0,11.000,11.079,,17.5462,,17.5466,,17.5464,33.0213,,33.0215,33.0220,,33.0236,33.0226,5.3728,,5.5963,5.5961,4.2563,,6.2199,4.5359,5.0660,234.358,244.1582,244.7265,185.657,407.6614,193.5291,219.1278,0.0364,,0.0035,0.0696,-99.0,,-99.0,-99.0,23.8672,,23.8676,,0.6836,84.2907,,8.128,,1.9043E+00,,1.1880E-01,,17.5444,17.5448,0.0587,,98.000,77.636,,,,,,,,,,,,
CalCOFI,2007SR,062,64,2007_062d,25-Jul-2020 11:35:56,25-Jul-2020 03:35:56,33.72044,-123.63232,076.7 090.0,076.7,090.0,12.000,12.086,,17.5464,,17.5465,,17.5465,33.0213,,33.0215,33.0221,,33.0237,33.0226,5.3704,,5.5938,5.5936,4.2569,,6.2213,4.5373,5.0655,234.251,244.0465,244.6156,185.681,407.3997,193.5883,219.1020,0.0353,,,0.0631,-99.0,,-99.0,-99.0,23.8672,,23.8677,,0.6833,84.2980,,8.128,,1.9043E+00,,1.1342E-01,,17.5444,17.5445,0.0627,,97.956,77.646,,,,,,,,,,,,
CalCOFI,2007SR,062,64,2007_062d,25-Jul-2020 11:35:58,25-Jul-2020 03:35:58,33.72044,-123.63232,076.7 090.0,076.7,090.0,13.000,13.094,,17.5456,,17.5459,,17.5458,33.0217,,33.0219,33.0223,,33.0239,33.0229,5.3688,,5.5922,5.5919,4.2555,,6.2180,4.5340,5.0630,234.183,243.9755,244.5450,185.619,407.2334,193.4353,218.9902,0.0354,,,0.0637,-99.0,,-99.0,-99.0,23.8677,,23.8680,,0.6828,84.3080,,8.128,,1.9043E+00,,1.0639E-01,,17.5435,17.5438,0.0668,,97.927,77.620,,,,,,,,,,,,
CalCOFI,2007SR,062,64,2007_062d,25-Jul-2020 11:36:00,25-Jul-2020 03:36:00,33.72044,-123.63232,076.7 090.0,076.7,090.0,14.000,14.101,,17.5458,,17.5454,,17.5456,33.0216,,33.0218,33.0223,,33.0239,33.0229,5.3715,,5.5950,5.5947,4.2575,,6.2227,4.5387,5.0667,234.299,244.0966,244.6653,185.707,407.5171,193.6525,219.1589,0.0360,,,0.0673,-99.0,,-99.0,-99.0,23.8676,,23.8682,,0.6823,84.3182,,8.128,,1.9043E+00,,1.0437E-01,,17.5434,17.5431,0.0709,,97.975,77.656,,,,,,,,,,,,
CalCOFI,2007SR,062,64,2007_062d,25-Jul-2020 11:36:02,25-Jul-2020 03:36:02,33.72044,-123.63232,076.7 090.0,076.7,090.0,15.000,15.108,,17.5471,,17.5465,,17.5468,33.0212,,33.0214,33.0221,,33.0237,33.0226,5.3731,,5.5967,5.5964,4.2546,,6.2158,4.5319,5.0642,234.369,244.1697,244.7379,185.580,407.6883,193.3391,219.0385,0.0364,,0.0035,0.0696,-99.0,,-99.0,-99.0,23.8670,,23.8678,,0.6827,84.3110,,8.128,,1.9043E+00,,9.7428E-02,,17.5446,17.5440,0.0749,,98.006,77.604,,,,,,,,,,,,
CalCOFI,2007SR,062,64,2007_062d,25-Jul-2020 11:36:04,25-Jul-2020 03:36:04,33.72044,-123.63232,076.7 090.0,076.7,090.0,16.000,16.115,,17.5470,,17.5470,,17.5470,33.0213,,33.0215,33.0219,,33.0235,33.0225,5.3727,,5.5962,5.5960,4.2585,,6.2251,4.5411,5.0686,234.353,244.1530,244.7213,185.751,407.6492,193.7611,219.2412,0.0359,,,0.0667,0.0001,,0.0000,-99.0,23.8671,,23.8676,,0.6836,84.2902,,8.128,,1.9043E+00,,9.1483E-02,,17.5444,17.5444,0.0790,,98.000,77.676,,,,,,,,,,,,
CalCOFI,2007SR,062,64,2007_062d,25-Jul-2020 11:36:07,25-Jul-2020 03:36:07,33.72044,-123.63232,076.7 090.0,076.7,090.0,17.000,17.122,,17.5444,,17.5442,,17.5443,33.0217,,33.0219,33.0223,,33.0239,33.0229,5.3783,,5.6021,5.6018,4.2599,,6.2285,4.5444,5.0731,234.597,244.4077,244.9743,185.813,408.2460,193.9141,219.4442,0.0355,,,0.0643,0.0001,,0.0000,-99.0,23.8681,,23.8686,,0.6838,84.2866,,8.128,,1.9043E+00,,9.0072E-02,,17.5415,17.5413,0.0830,,98.097,77.698,,,,,,,,,,,,
CalCOFI,2007SR,062,64,2007_062d,25-Jul-2020 11:36:08,25-Jul-2020 03:36:08,33.72044,-123.63232,076.7 090.0,076.7,090.0,18.000,18.130,,17.5301,,17.5305,,17.5303,33.0248,,33.0250,33.0255,,33.0271,33.0261,5.3749,,5.5985,5.5983,4.2620,,6.2335,4.5494,5.0739,234.445,244.2490,244.8167,185.904,407.8742,194.1386,219.4777,0.0364,,0.0035,0.0696,0.0001,,0.0000,-99.0,23.8739,,23.8743,,0.6844,84.2729,,8.128,,1.9043E+00,,8.6769E-02,,17.5271,17.5275,0.0871,,98.009,77.718,,,,,,,,,,,,
CalCOFI,2007SR,062,64,2007_062d,25-Jul-2020 11:36:10,25-Jul-2020 03:36:10,33.72044,-123.63232,076.7 090.0,076.7,090.0,19.000,19.137,,17.5312,,17.5302,,17.5307,33.0246,,33.0248,33.0257,,33.0273,33.0261,5.3810,,5.6049,5.6046,4.2624,,6.2344,4.5503,5.0775,234.713,244.5288,245.0947,185.918,408.5297,194.1732,219.6340,0.0358,,,0.0661,0.0001,,0.0000,-99.0,23.8736,,23.8747,,0.6830,84.3035,,8.128,,1.9043E+00,,7.7956E-02,,17.5280,17.5270,0.0912,,98.123,77.723,,,,,,,,,,,,
CalCOFI,2007SR,062,64,2007_062d,25-Jul-2020 11:36:12,25-Jul-2020 03:36:12,33.72044,-123.63232,076.7 090.0,076.7,090.0,20.000,20.144,,17.5279,,17.5294,,17.5287,33.0257,,33.0259,33.0261,,33.0277,33.0268,5.3764,,5.6001,5.5998,4.2629,,6.2356,4.5515,5.0757,234.510,244.3169,244.8841,185.943,408.0332,194.2349,219.5595,0.0358,,,0.0661,0.0001,,0.0000,-99.0,23.8753,,23.8752,,0.6856,84.2482,,8.128,,1.9043E+00,,7.1869E-02,,17.5246,17.5261,0.0952,,98.033,77.733,,,,,,,,,,,,
CalCOFI,2007SR,062,64,2007_062d,25-Jul-2020 11:36:14,25-Jul-2020 03:36:14,33.72044,-123.63232,076.7 090.0,076.7,090.0,21.000,21.151,,17.5304,,17.5282,,17.5293,33.0249,,33.0251,33.0263,,33.0279,33.0265,5.3771,,5.6008,5.6006,4.2636,,6.2373,4.5532,5.0769,234.541,244.3492,244.9163,185.970,408.1090,194.3015,219.6089,0.0363,,0.0023,0.0690,0.0001,,0.0000,-99.0,23.8740,,23.8757,,0.6828,84.3081,,8.128,,1.9043E+00,,6.1008E-02,,17.5269,17.5247,0.0993,,98.050,77.742,,,,,,,,,,,,
CalCOFI,2007SR,062,64,2007_062d,25-Jul-2020 11:36:16,25-Jul-2020 03:36:16,33.72044,-123.63232,076.7 090.0,076.7,090.0,22.000,22.159,,17.5358,,17.5351,,17.5355,33.0235,,33.0237,33.0244,,33.0260,33.0249,5.3741,,5.5977,5.5974,4.2636,,6.2373,4.5532,5.0753,234.410,244.2125,244.7804,185.971,407.7886,194.3040,219.5422,0.0361,,,0.0678,0.0001,,0.0000,-99.0,23.8718,,23.8726,,0.6828,84.3076,,8.128,,1.9043E+00,,5.4108E-02,,17.5321,17.5314,0.1033,,98.004,77.752,,,,,,,,,,,,
CalCOFI,2007SR,062,64,2007_062d,25-Jul-2020 11:36:18,25-Jul-2020 03:36:18,33.72044,-123.63232,076.7 090.0,076.7,090.0,23.000,23.166,,17.5249,,17.5275,,17.5262,33.0267,,33.0269,33.0267,,33.0283,33.0276,5.3851,,5.6092,5.6089,4.2647,,6.2399,4.5558,5.0824,234.890,244.7136,245.2782,186.019,408.9626,194.4224,219.8503,0.0367,,0.0070,0.0714,0.0001,,0.0000,-99.0,23.8768,,23.8762,,0.6822,84.3200,,8.128,,1.9043E+00,,5.0143E-02,,17.5211,17.5236,0.1074,,98.187,77.762,,,,,,,,,,,,
CalCOFI,2007SR,062,64,2007_062d,25-Jul-2020 11:36:20,25-Jul-2020 03:36:20,33.72044,-123.63232,076.7 090.0,076.7,090.0,24.000,24.173,,17.4988,,17.5029,,17.5009,33.0309,,33.0311,33.0307,,33.0323,33.0317,5.3832,,5.6072,5.6069,4.2672,,6.2459,4.5617,5.0843,234.806,244.6259,245.1911,186.128,408.7571,194.6914,219.9413,0.0386,,0.0293,0.0824,0.0001,,0.0000,-99.0,23.8864,,23.8852,,0.6845,84.2729,,8.128,,1.9043E+00,,4.5529E-02,,17.4948,17.4989,0.1114,,98.106,77.773,,,,,,,,,,,,
CalCOFI,2007SR,062,64,2007_062d,25-Jul-2020 11:36:22,25-Jul-2020 03:36:22,33.72044,-123.63232,076.7 090.0,076.7,090.0,25.000,25.181,,17.4920,,17.4942,,17.4931,33.0308,,33.0310,33.0315,,33.0331,33.0321,5.3826,,5.6066,5.6063,4.2685,,6.2490,4.5648,5.0856,234.780,244.5987,245.1641,186.182,408.6936,194.8247,219.9944,0.0372,,0.0129,0.0743,0.0001,,0.0000,-99.0,23.8879,,23.8879,,0.6830,84.3033,,8.128,,1.9043E+00,,4.1075E-02,,17.4878,17.4901,0.1155,,98.083,77.784,,,,,,,,,,,,
CalCOFI,2007SR,062,64,2007_062d,25-Jul-2020 11:36:24,25-Jul-2020 03:36:24,33.72044,-123.63232,076.7 090.0,076.7,090.0,26.000,26.188,,17.4522,,17.4635,,17.4579,33.0234,,33.0236,33.0253,,33.0269,33.0253,5.3996,,5.6243,5.6241,4.2744,,6.2631,4.5787,5.1014,235.519,245.3702,245.9305,186.439,410.5010,195.4589,220.6947,0.0369,,0.0094,0.0725,0.0001,,0.0000,-99.0,23.8918,,23.8906,,0.6840,84.2818,,8.129,,1.9043E+00,,3.8064E-02,,17.4478,17.4592,0.1195,,98.312,77.842,26,17.262,33.0219,5.644,246.49,0.107,0.036,0.0,0.027,0.11,0.32,1.32
CalCOFI,2007SR,062,64,2007_062d,25-Jul-2020 11:36:26,25-Jul-2020 03:36:26,33.72044,-123.63232,076.7 090.0,076.7,090.0,27.000,27.195,,17.3657,,17.3509,,17.3583,33.0051,,33.0053,33.0019,,33.0035,33.0044,5.4419,,5.6685,5.6683,4.2873,,6.2939,4.6093,5.1388,237.363,247.2951,247.8426,187.003,415.0112,196.8507,222.3467,0.0387,,0.0305,0.0830,0.0001,,0.0000,-99.0,23.8984,,23.8994,,0.6846,84.2704,,8.129,,1.9043E+00,,3.1933E-02,,17.3612,17.3464,0.1236,,98.907,77.899,,,,,,,,,,,,
CalCOFI,2007SR,062,64,2007_062d,25-Jul-2020 11:36:28,25-Jul-2020 03:36:28,33.72044,-123.63232,076.7 090.0,076.7,090.0,28.000,28.203,,17.1656,,17.1751,,17.1704,32.9879,,32.9881,32.9901,,32.9917,32.9899,5.4577,,5.6851,5.6848,4.3030,,6.3314,4.6465,5.1657,238.046,248.0081,248.5509,187.681,416.6817,198.5239,223.5374,0.0395,,0.0399,0.0876,0.0001,,0.0000,-99.0,23.9326,,23.9320,,0.6849,84.2619,,8.130,,1.9043E+00,,2.4328E-02,,17.1610,17.1705,0.1276,,98.804,77.915,,,,,,,,,,,,
CalCOFI,2007SR,062,64,2007_062d,25-Jul-2020 11:36:30,25-Jul-2020 03:36:30,33.72044,-123.63232,076.7 090.0,076.7,090.0,29.000,29.210,,17.1054,,17.1399,,17.1227,32.9856,,32.9858,32.9826,,32.9842,32.9850,5.4846,,5.7132,5.7129,4.3112,,6.3509,4.6659,5.1894,239.212,249.2253,249.7600,188.038,419.5336,199.4049,224.5825,0.0391,,0.0352,0.0853,0.0001,,0.0000,-99.0,23.9450,,23.9347,,0.6854,84.2533,,8.130,,1.9043E+00,,2.2095E-02,,17.1007,17.1351,0.1316,,99.173,78.007,,,,,,,,,,,,
CalCOFI,2007SR,062,64,2007_062d,25-Jul-2020 11:36:33,25-Jul-2020 03:36:33,33.72044,-123.63232,076.7 090.0,076.7,090.0,30.000,30.217,,16.9149,,16.9279,,16.9214,32.9621,,32.9623,32.9621,,32.9637,32.9630,5.5354,,5.7662,5.7660,4.3355,,6.4089,4.7234,5.2447,241.422,251.5323,252.0517,189.090,424.9389,202.0010,227.0264,0.0394,,0.0387,0.0870,0.0001,,0.0000,-99.0,23.9717,,23.9687,,0.6879,84.1990,,8.131,,1.9043E+00,,1.9302E-02,,16.9100,16.9230,0.1356,,99.710,78.116,,,,,,,,,,,,
CalCOFI,2007SR,062,64,2007_062d,25-Jul-2020 11:36:34,25-Jul-2020 03:36:34,33.72044,-123.63232,076.7 090.0,076.7,090.0,31.000,31.224,,16.8548,,16.8544,,16.8546,32.9621,,32.9623,32.9632,,32.9648,32.9636,5.5371,,5.7680,5.7678,4.3400,,6.4197,4.7341,5.2510,241.495,251.6085,252.1274,189.284,425.1175,202.4798,227.3036,0.0405,,0.0516,0.0933,0.0001,,0.0000,-99.0,23.9858,,23.9867,,0.6889,84.1784,,8.131,,1.9043E+00,,1.7376E-02,,16.8498,16.8494,0.1395,,99.626,78.087,,,,,,,,,,,,
CalCOFI,2007SR,062,64,2007_062d,25-Jul-2020 11:36:36,25-Jul-2020 03:36:36,33.72043,-123.63231,076.7 090.0,076.7,090.0,32.000,32.232,,16.8305,,16.8440,,16.8373,32.9645,,32.9647,32.9645,,32.9661,32.9654,5.5222,,5.7524,5.7522,4.3498,,6.4431,4.7573,5.2548,240.845,250.9300,251.4534,189.713,423.5277,203.5385,227.4960,0.0424,,0.0740,0.1041,0.0001,,0.0000,-99.0,23.9933,,23.9902,,0.6913,84.1288,,8.131,,1.9043E+00,,1.7298E-02,,16.8253,16.8388,0.1435,,99.313,78.249,,,,,,,,,,,,
CalCOFI,2007SR,062,64,2007_062d,25-Jul-2020 11:36:39,25-Jul-2020 03:36:39,33.72044,-123.63232,076.7 090.0,076.7,090.0,33.000,33.239,,16.6334,,16.6505,,16.6420,32.9479,,32.9481,32.9492,,32.9508,32.9495,5.6249,,5.8598,5.8596,4.3774,,6.5090,4.8227,5.3412,245.312,255.5931,256.0856,190.910,434.4533,206.4924,231.2890,0.0422,,0.0716,0.1029,0.0001,,0.0000,-99.0,24.0263,,24.0233,,0.6930,84.0938,,8.133,,1.9043E+00,,7.2063E-03,,16.6281,16.6452,0.1474,,100.762,78.443,,,,,,,,,,,,
CalCOFI,2007SR,062,64,2007_062d,25-Jul-2020 11:36:40,25-Jul-2020 03:36:40,33.72044,-123.63232,076.7 090.0,076.7,090.0,34.000,34.246,,16.3462,,16.3499,,16.3481,32.9374,,32.9376,32.9361,,32.9377,32.9377,5.6273,,5.8623,5.8621,4.3994,,6.5615,4.8748,5.3685,245.404,255.6891,256.1810,191.856,434.6783,208.8269,232.5040,0.0426,,0.0763,0.1052,0.0001,,0.0000,-99.0,24.0842,,24.0823,,0.6885,84.1875,,8.137,,1.9043E+00,,1.5869E-03,,16.3408,16.3445,0.1513,,100.237,78.370,,,,,,,,,,,,
CalCOFI,2007SR,062,64,2007_062d,25-Jul-2020 11:36:42,25-Jul-2020 03:36:42,33.72042,-123.63232,076.7 090.0,076.7,090.0,35.000,35.254,,16.3015,,16.2924,,16.2970,32.9409,,32.9411,32.9441,,32.9457,32.9434,5.6335,,5.8687,5.8686,4.4191,,6.6085,4.9214,5.3950,245.673,255.9699,256.4599,192.714,435.3363,210.9443,233.7021,0.0417,,0.0657,0.1001,0.0001,,0.0000,-99.0,24.0971,,24.1017,,0.6846,84.2694,,8.137,,1.9043E+00,,4.7694E-04,,16.2960,16.2868,0.1551,,100.263,78.637,,,,,,,,,,,,
CalCOFI,2007SR,062,64,2007_062d,25-Jul-2020 11:36:45,25-Jul-2020 03:36:45,33.72042,-123.63232,076.7 090.0,076.7,090.0,36.000,36.261,,16.1297,,16.1378,,16.1338,32.9179,,32.9181,32.9195,,32.9211,32.9196,5.7138,,5.9526,5.9525,4.4444,,6.6689,4.9813,5.4669,249.170,259.6205,260.0862,193.813,443.8894,213.6564,236.8713,0.0408,,0.0552,0.0950,0.0001,,0.0000,-99.0,24.1185,,24.1179,,0.6831,84.3023,,8.137,,1.9043E+00,,-1.422E-05,,16.1240,16.1322,0.1590,,101.336,78.836,,,,,,,,,,,,
CalCOFI,2007SR,062,64,2007_062d,25-Jul-2020 11:36:46,25-Jul-2020 03:36:46,33.72042,-123.63232,076.7 090.0,076.7,090.0,37.000,37.268,,15.8981,,15.9442,,15.9212,32.8986,,32.8988,32.9041,,32.9057,32.9023,5.7596,,6.0005,6.0004,4.4665,,6.7217,5.0337,5.5171,251.158,261.6957,262.1478,194.772,448.7518,216.0230,239.0854,0.0414,,0.0622,0.0984,0.0001,,0.0000,-99.0,24.1558,,24.1498,,0.6819,84.3265,,8.139,,1.9043E+00,,1.0000E-12,,15.8924,15.9384,0.1628,,101.673,78.921,,,,,,,,,,,,
CalCOFI,2007SR,062,64,2007_062d,25-Jul-2020 11:36:48,25-Jul-2020 03:36:48,33.72042,-123.63232,076.7 090.0,076.7,090.0,38.000,38.276,,15.7241,,15.7554,,15.7398,32.9011,,32.9013,32.9008,,32.9024,32.9019,5.7854,,6.0275,6.0273,4.4844,,6.7644,5.0760,5.5517,252.274,262.8607,263.3050,195.543,451.4814,217.9257,240.6154,0.0419,,0.0681,0.1013,0.0001,,0.0000,-99.0,24.1967,,24.1895,,0.6813,84.3404,,8.140,,1.9043E+00,,1.0000E-12,,15.7183,15.7495,0.1666,,101.782,78.941,,,,,,,,,,,,
CalCOFI,2007SR,062,64,2007_062d,25-Jul-2020 11:36:51,25-Jul-2020 03:36:51,33.72042,-123.63232,076.7 090.0,076.7,090.0,39.000,39.283,,15.6252,,15.6719,,15.6486,32.9022,,32.9024,32.9041,,32.9057,32.9041,5.8200,,6.0636,6.0635,4.4990,,6.7993,5.1106,5.5871,253.773,264.4255,264.8595,196.174,455.1477,219.4828,242.1712,0.0427,,0.0775,0.1058,0.0001,,0.0000,-99.0,24.2195,,24.2107,,0.6808,84.3497,,8.140,,1.9043E+00,,1.0000E-12,,15.6192,15.6659,0.1703,,102.189,79.069,,,,,,,,,,,,
CalCOFI,2007SR,062,64,2007_062d,25-Jul-2020 11:36:53,25-Jul-2020 03:36:53,33.72042,-123.63232,076.7 090.0,076.7,090.0,40.000,40.290,,15.4546,,15.5018,,15.4782,32.8941,,32.8943,32.8945,,32.8961,32.8952,5.8689,,6.1147,6.1146,4.5220,,6.8542,5.1651,5.6399,255.900,266.6459,267.0651,197.171,460.3501,221.9432,244.5042,0.0433,,0.0845,0.1091,-99.0,,-99.0,-99.0,24.2510,,24.2410,,0.6802,84.3628,,8.141,,1.9043E+00,,1.0000E-12,,15.4485,15.4957,0.1740,,102.697,79.201,,,,,,,,,,,,
CalCOFI,2007SR,062,64,2007_062d,25-Jul-2020 11:36:55,25-Jul-2020 03:36:55,33.72042,-123.63232,076.7 090.0,076.7,090.0,41.000,41.298,,15.3571,,15.3779,,15.3675,32.8931,,32.8933,32.8952,,32.8968,32.8951,5.8679,,6.1137,6.1136,4.5365,,6.8888,5.1994,5.6565,255.850,266.5937,267.0133,197.799,460.2278,223.4930,245.2532,0.0441,,0.0939,0.1135,-99.0,,-99.0,-99.0,24.2717,,24.2688,,0.6793,84.3819,,8.141,,1.9043E+00,,1.0000E-12,,15.3509,15.3716,0.1777,,102.480,79.261,41,15.518,32.8935,,264.71,0.151,0.050,0.0,0.00,0.00,0.35,1.29
CalCOFI,2007SR,062,64,2007_062d,25-Jul-2020 11:36:57,25-Jul-2020 03:36:57,33.72042,-123.63232,076.7 090.0,076.7,090.0,42.000,42.305,,15.3166,,15.3305,,15.3236,32.8920,,32.8922,32.8910,,32.8926,32.8924,5.8753,,6.1214,6.1213,4.5515,,6.9246,5.2349,5.6781,256.171,266.9288,267.3461,198.453,461.0129,225.1069,246.2265,0.0441,,0.0939,0.1135,-99.0,,-99.0,-99.0,24.2797,,24.2760,,0.6790,84.3882,,8.141,,1.9043E+00,,1.0000E-12,,15.3102,15.3241,0.1814,,102.526,79.447,,,,,,,,,,,,
CalCOFI,2007SR,062,64,2007_062d,25-Jul-2020 11:36:59,25-Jul-2020 03:36:59,33.72043,-123.63232,076.7 090.0,076.7,090.0,43.000,43.313,,15.1907,,15.2014,,15.1961,32.8789,,32.8791,32.8806,,32.8822,32.8807,5.9279,,6.1764,6.1763,4.5706,,6.9702,5.2802,5.7283,258.462,269.3204,269.7219,199.283,466.6164,227.1552,248.4386,0.0443,,0.0963,0.1147,-99.0,,-99.0,-99.0,24.2972,,24.2962,,0.6797,84.3716,,8.142,,1.9043E+00,,1.0000E-12,,15.1842,15.1949,0.1850,,103.178,79.571,,,,,,,,,,,,
CalCOFI,2007SR,062,64,2007_062d,25-Jul-2020 11:37:00,25-Jul-2020 03:37:00,33.72043,-123.63232,076.7 090.0,076.7,090.0,44.000,44.320,,15.0052,,15.0390,,15.0221,32.8698,,32.8700,32.8716,,32.8732,32.8716,5.9466,,6.1959,6.1958,4.5842,,7.0027,5.3124,5.7541,259.269,270.1628,270.5587,199.868,468.5902,228.5988,249.5788,0.0453,,0.1080,0.1202,-99.0,,-99.0,-99.0,24.3304,,24.3245,,0.6800,84.3666,,8.143,,1.9043E+00,,1.0000E-12,,14.9986,15.0324,0.1887,,103.115,79.545,,,,,,,,,,,,
CalCOFI,2007SR,062,64,2007_062d,25-Jul-2020 11:37:03,25-Jul-2020 03:37:03,33.72042,-123.63232,076.7 090.0,076.7,090.0,45.000,45.327,,14.9934,,15.0315,,15.0125,32.8714,,32.8716,32.8752,,32.8768,32.8742,5.9221,,6.1703,6.1702,4.6033,,7.0483,5.3576,5.7639,258.196,269.0427,269.4460,200.702,465.9658,230.6570,250.0515,0.0449,,0.1033,0.1180,6.7599E-08,,0.0000,-99.0,24.3342,,24.3289,,0.6792,84.3819,,8.140,,1.9043E+00,,1.0000E-12,,14.9867,15.0248,0.1923,,102.666,79.867,,,,,,,,,,,,
CalCOFI,2007SR,062,64,2007_062d,25-Jul-2020 11:37:05,25-Jul-2020 03:37:05,33.72042,-123.63232,076.7 090.0,076.7,090.0,46.000,46.335,,14.8337,,14.8501,,14.8419,32.8776,,32.8778,32.8770,,32.8786,32.8782,5.9861,,6.2372,6.2371,4.6236,,7.0967,5.4057,5.8214,260.979,271.9479,272.3319,201.577,472.7726,232.8163,252.5741,0.0443,,0.0963,0.1147,-99.0,,-99.0,-99.0,24.3734,,24.3694,,0.6791,84.3849,,8.141,,1.9043E+00,,1.0000E-12,,14.8269,14.8433,0.1959,,103.449,79.929,,,,,,,,,,,,
CalCOFI,2007SR,062,64,2007_062d,25-Jul-2020 11:37:06,25-Jul-2020 03:37:06,33.72043,-123.63232,076.7 090.0,076.7,090.0,47.000,47.342,,14.6490,,14.6532,,14.6511,32.8794,,32.8796,32.8801,,32.8817,32.8807,6.0068,,6.2588,6.2588,4.6431,,7.1433,5.4519,5.8554,261.868,272.8759,273.2538,202.418,474.9469,234.8917,254.0728,0.0489,,0.1503,0.1396,-99.0,,-99.0,-99.0,24.4142,,24.4138,,0.6767,84.4356,,8.144,,1.9043E+00,,1.0000E-12,,14.6421,14.6463,0.1995,,103.423,79.951,,,,,,,,,,,,
CalCOFI,2007SR,062,64,2007_062d,25-Jul-2020 11:37:09,25-Jul-2020 03:37:09,33.72042,-123.63232,076.7 090.0,076.7,090.0,48.000,48.349,,14.6321,,14.6700,,14.6511,32.8874,,32.8876,32.8883,,32.8899,32.8888,5.9824,,6.2333,6.2333,4.6533,,7.1676,5.4760,5.8547,260.803,271.7642,272.1494,202.865,472.3421,235.9948,254.0721,0.0514,,0.1797,0.1528,-99.0,,-99.0,-99.0,24.4240,,24.4166,,0.6769,84.4327,,8.143,,1.9043E+00,,1.0000E-12,,14.6250,14.6630,0.2030,,102.974,80.159,,,,,,,,,,,,
CalCOFI,2007SR,062,64,2007_062d,25-Jul-2020 11:37:12,25-Jul-2020 03:37:12,33.72042,-123.63232,076.7 090.0,076.7,090.0,49.000,49.357,,14.5364,,14.5670,,14.5517,32.8786,,32.8788,32.8823,,32.8839,32.8814,6.0349,,6.2882,6.2881,4.6770,,7.2242,5.5321,5.9101,263.088,274.1495,274.5189,203.894,477.9309,238.5341,256.5265,0.0521,,0.1879,0.1564,-99.0,,-99.0,-99.0,24.4375,,24.4338,,0.6795,84.3772,,8.144,,1.9043E+00,,1.0000E-12,,14.5293,14.5598,0.2065,,103.671,80.397,,,,,,,,,,,,
CalCOFI,2007SR,062,64,2007_062d,25-Jul-2020 11:37:13,25-Jul-2020 03:37:13,33.72042,-123.63232,076.7 090.0,076.7,090.0,50.000,50.364,,14.2636,,14.2960,,14.2798,32.8811,,32.8813,32.8815,,32.8831,32.8822,6.0835,,6.3389,6.3389,4.7077,,7.2975,5.6048,5.9719,265.193,276.3469,276.7018,205.219,483.0794,241.8040,259.2529,0.0549,,0.2208,0.1708,-99.0,,-99.0,-99.0,24.4968,,24.4903,,0.6824,84.3149,,8.144,,1.9043E+00,,1.0000E-12,,14.2564,14.2888,0.2100,,103.935,80.483,50,14.358,32.8832,,273.68,0.197,0.095,0.0,0.00,0.09,0.35,1.40